Погода в Катманду

Непал     27°42′32″N   85°19′10″E
темп.,
°C
ветер,
м/с
пор.,
м/с
влажн.,
%
обл.,
%
осадки,
мм/ч
давл.,
гПа
погр.,
м
2 декабря, чт
чт223:45+11юв1165100 0.0 101813
02:45+11юв1168100 0.0 101712
05:45+12вюв1164100 0.0 101716
08:45+14в0162100 0.0 101962
11:45+18зсз2248100 0.0 1017682
14:45+18зсз2254100 0.0 1014515
17:45+13зсз1171100 0.0 101511
20:45+13ююв1169100 0.0 101710
3 декабря, пт
пт323:45+13юв2269100 0.0 101616
02:45+13ююз2266100 0.0 101515
05:45+12с0170100 0.0 101613
08:45+14сз1168100 0.0 101837
11:45+15ссз116699 0.0 1018138
14:45+13всв2285100 0.3 101682
17:45+12сз118498 0.3 101714
20:45+12ю1186100 0.0 101910
4 декабря, сб
сб423:45+11ююв118599 0.0 101811
02:45+11ююв1183100 0.0 101610
05:45+10ю018478 0.0 101610
08:45+16вюв016721 0.0 1017193
11:45+20з225315 0.0 1015994
14:45+20зсз32535 0.0 10131161
17:45+13юз11852 0.0 101612
20:45+12вюв11880 0.0 101910
5 декабря, вс
вс523:45+11юв11880 0.0 101911
02:45+10ююв11860 0.0 101811
05:45+10вюв11860 0.0 101813
08:45+15вюв11710 0.0 1019239
11:45+19сз22530 0.0 10171021
14:45+19сз22500 0.0 10131004
17:45+13зсз11720 0.0 101511
20:45+11ююв11750 0.0 101710
6 декабря, пн
пн623:45+10юв22730 0.0 101714
02:45+10юв11740 0.0 101613
05:45+9юв11770 0.0 101612
08:45+15вюв11620 0.0 1017258
11:45+19ссз11460 0.0 10151198
14:45+19сз224547 0.0 1012940
17:45+13сз11620 0.0 101311
20:45+11ююв01630 0.0 101511